Lawrence, KS

8:49 PM CDT on March 29, 2017 (GMT -0500)
Lawrence Municipal

Weather History for KLWC - September, 2012

Change the Weather History Date:

Thursday, September 13, 2012

  Actual Average Record
Temperature  
Mean Temperature 58 °F 69 °F  
Max Temperature 60 °F 83 °F 96 °F (2000)
Min Temperature 55 °F 56 °F 34 °F (2014)
Degree Days  
Heating Degree Days 7 1  
Month to date heating degree days 11 6  
Since 1 July heating degree days 11 9  
Cooling Degree Days 0 5  
Month to date cooling degree days 118 93  
Year to date cooling degree days 1718 1284  
Growing Degree Days 8 (Base 50)    
Moisture  
Dew Point 53 °F    
Average Humidity 83    
Maximum Humidity 93    
Minimum Humidity 72    
Precipitation  
Precipitation 0.45 in 0.13 in 1.34 in (1998)
Month to date precipitation 1.54 2.08  
Year to date precipitation 17.93 29.94  
Sea Level Pressure  
Sea Level Pressure 30.29 in    
Wind  
Wind Speed 9 mph (NNE)    
Max Wind Speed 21 mph    
Max Gust Speed 29 mph    
Visibility 8 miles    
Events Rain , Thunderstorm    
T = Trace of Precipitation, MM = Missing Value Source: NWS Daily Summary

Daily Weather History Graph

Daily Weather History Graph

Search for Another Location

Airport or City:

Trip Planner

Search our weather history database for the weather conditions in past years. The results will help you decide how hot, cold, wet, or windy it might be!

Date:

Astronomy

Sep. 13, 2012 Rise Set
Actual Time 7:00 AM CDT 7:31 PM CDT
Civil Twilight 6:34 AM CDT 7:58 PM CDT
Nautical Twilight 6:02 AM CDT 8:29 PM CDT
Astronomical Twilight 5:30 AM CDT 9:02 PM CDT
Moon 4:22 AM CDT (9/13) 5:54 PM CDT (9/13)
Length of Visible Light 13h 24m
Length of Day
12h 30m
Waning Crescent, 7% of the Moon is Illuminated
Sep 13
Waning Crescent
Sep 15
New
Sep 22
First Quarter
Sep 29
Full
Oct 8
Last Quarter

Hourly Weather History & Observations

Time (CDT) Temp. Dew Point Humidity Pressure Visibility Wind Dir Wind Speed Gust Speed Precip Events Conditions
12:52 AM 57.9 °F 51.1 °F 78% 30.11 in 4.0 mi North 13.8 mph - 0.03 in Rain Light Rain
1:52 AM 59.0 °F 51.1 °F 75% 30.12 in 10.0 mi Calm Calm - 0.03 in Thunderstorm Mostly Cloudy
2:43 AM 60.8 °F 50.0 °F 68% 30.15 in 10.0 mi North 8.1 mph - N/A   Overcast
2:52 AM 60.1 °F 50.0 °F 69% 30.14 in 10.0 mi NNW 9.2 mph - N/A   Mostly Cloudy
3:52 AM 57.9 °F 54.0 °F 87% 30.15 in 10.0 mi North 10.4 mph - 0.00 in   Overcast
4:52 AM 57.9 °F 53.1 °F 84% 30.17 in 10.0 mi North 10.4 mph - N/A   Overcast
5:52 AM 59.0 °F 54.0 °F 83% 30.19 in 10.0 mi NNE 9.2 mph 18.4 mph N/A   Overcast
6:08 AM 60.8 °F 53.6 °F 77% 30.21 in 10.0 mi North 11.5 mph 20.7 mph N/A   Overcast
6:36 AM 60.8 °F 55.4 °F 82% 30.23 in 10.0 mi NNE 9.2 mph 20.7 mph N/A   Overcast
6:52 AM 60.1 °F 55.0 °F 83% 30.22 in 10.0 mi NNE 12.7 mph 19.6 mph N/A   Overcast
7:27 AM 57.2 °F 53.6 °F 88% 30.25 in 10.0 mi North 10.4 mph 21.9 mph N/A   Overcast
7:37 AM 57.2 °F 53.6 °F 88% 30.26 in 10.0 mi North 9.2 mph 19.6 mph N/A   Overcast
7:52 AM 57.0 °F 52.0 °F 83% 30.25 in 10.0 mi NE 13.8 mph 23.0 mph N/A   Overcast
8:52 AM 55.9 °F 50.0 °F 80% 30.28 in 10.0 mi NNE 15.0 mph 21.9 mph N/A   Overcast
9:52 AM 57.0 °F 48.9 °F 74% 30.29 in 10.0 mi NE 20.7 mph 26.5 mph N/A   Overcast
10:52 AM 57.9 °F 50.0 °F 75% 30.30 in 10.0 mi NE 12.7 mph 19.6 mph N/A   Overcast
11:52 AM 57.0 °F 52.0 °F 83% 30.31 in 10.0 mi NE 10.4 mph - 0.01 in   Overcast
12:32 PM 57.2 °F 53.6 °F 88% 30.34 in 10.0 mi North 10.4 mph 18.4 mph N/A   Overcast
12:52 PM 57.0 °F 53.1 °F 87% 30.33 in 10.0 mi NNE 10.4 mph - N/A   Overcast
1:13 PM 55.4 °F 53.6 °F 94% 30.33 in 2.5 mi NNE 8.1 mph - 0.05 in Rain Light Rain
1:23 PM 55.4 °F 53.6 °F 94% 30.33 in 2.5 mi NNE 8.1 mph 17.3 mph 0.07 in Rain Light Rain
1:31 PM 55.4 °F 53.6 °F 94% 30.32 in 3.0 mi NNE 12.7 mph - 0.08 in Rain Light Rain
1:52 PM 57.0 °F 54.0 °F 89% 30.33 in 5.0 mi North 9.2 mph - 0.10 in Rain Light Rain
2:27 PM 57.2 °F 53.6 °F 88% 30.32 in 4.0 mi NNE 9.2 mph - 0.06 in Rain Light Rain
2:38 PM 55.4 °F 53.6 °F 94% 30.31 in 6.0 mi NNE 10.4 mph - 0.06 in Rain Light Rain
2:52 PM 57.0 °F 54.0 °F 89% 30.32 in 10.0 mi North 6.9 mph 16.1 mph 0.07 in Rain Light Rain
3:00 PM 57.2 °F 53.6 °F 88% 30.33 in 10.0 mi North 10.4 mph 16.1 mph 0.00 in Rain Light Rain
3:52 PM 57.0 °F 54.0 °F 89% 30.34 in 7.0 mi North 8.1 mph - 0.02 in Rain Light Rain
4:52 PM 57.0 °F 54.0 °F 89% 30.34 in 4.0 mi North 10.4 mph - 0.08 in Rain Light Rain
5:02 PM 57.2 °F 53.6 °F 88% 30.34 in 4.0 mi NNE 8.1 mph - 0.01 in Rain Light Rain
5:52 PM 57.0 °F 54.0 °F 89% 30.35 in 6.0 mi NNE 4.6 mph - 0.06 in Rain Light Rain
6:01 PM 57.2 °F 53.6 °F 88% 30.36 in 6.0 mi NNE 8.1 mph - 0.00 in Rain Light Rain
6:17 PM 57.2 °F 53.6 °F 88% 30.37 in 8.0 mi NNE 8.1 mph - 0.01 in Rain Light Rain
6:52 PM 55.9 °F 53.1 °F 90% 30.35 in 7.0 mi NE 5.8 mph - 0.02 in Rain Light Rain
7:41 PM 55.4 °F 53.6 °F 94% 30.34 in 10.0 mi NE 6.9 mph - 0.01 in Rain Light Rain
7:52 PM 55.9 °F 53.1 °F 90% 30.33 in 10.0 mi NE 8.1 mph - 0.01 in Rain Light Rain
8:52 PM 55.9 °F 53.1 °F 90% 30.36 in 10.0 mi NNE 4.6 mph - 0.01 in Rain Light Rain
9:52 PM 55.9 °F 53.1 °F 90% 30.38 in 10.0 mi NNE 3.5 mph - 0.00 in Rain Light Rain
10:52 PM 55.0 °F 53.1 °F 93% 30.39 in 9.0 mi North 3.5 mph - 0.03 in Rain Light Rain
11:52 PM 55.0 °F 53.1 °F 93% 30.39 in 10.0 mi NE 3.5 mph - 0.01 in Rain Light Rain